User: anonymous   Login
Location: Mohawk View
(42.7837°N, 73.7885°W)
Time: 07:45:02
(UTC+00:00)
Language:

Cosmos 2221 - Orbit

View from above orbital plane
View from above orbital plane
View from above satellite
View from above satellite

Ground track
Ground track

The orbit data is extracted from the following two-line orbital elements,

1 22236U 92080A   21263.85525673  .00000243  00000-0  23755-4 0  9994
2 22236  82.5101  28.5609 0015469 229.8292 130.1572 14.88100694537738
Epoch (UTC): 20 September 2021 20:31:34
Eccentricity: 0.0015469
inclination: 82.5101°
perigee height: 593 km
apogee height: 614 km
right ascension of ascending node: 28.5609°
argument of perigee: 229.8292°
revolutions per day: 14.88100694
mean anomaly at epoch: 130.1572°
orbit number at epoch: 53773

The dashed part of the orbit path shows where the satellite is in the earth's shadow,  

DLR